Regional Weather Roundup
Issued by NWS

Home | Current Version | Previous Version | Text Only | Print | Product List | Glossary On
Versions: 1 2 3 4 5 6 7 8 9 10 11 12 13 14 15 16 17 18 19 20 21 22 23 24 25 26 27 28 29 30 31 32 33 34 35 36 37 38 39 40 41 42 43 44 45 46 47 48 49 50
000
ASUS44 KLIX 202211
RWRLA
LOUISIANA WEATHER ROUNDUP
NATIONAL WEATHER SERVICE NEW ORLEANS LA
500 PM CDT SAT JUL 20 2019

NOTE: "FAIR" INDICATES FEW OR NO CLOUDS BELOW 12,000 FEET WITH NO
      SIGNIFICANT WEATHER AND/OR OBSTRUCTIONS TO VISIBILITY.
      SKY/WX - SKY CONDITION AND SIGNIFICANT WEATHER.
      TMP - AIR TEMPERATURE.    DP   - DEWPOINT TEMPERATURE.
      RH  - RELATIVE HUMIDITY.  PRES - PRESSURE.
      HX  - HEAT INDEX.         WCI  - WIND CHILL INDEX.

*  THESE STATIONS ARE NOT NWS OR FAA STATIONS AND ARE NOT UNDER
   NWS QUALITY CONTROL.

LAZ040-048-061>063-065-066-069-202300-
SOUTHEAST LOUISIANA

CITY           SKY/WX    TMP DP  RH WIND       PRES   REMARKS
N.O. INTL ARPT LGT RAIN  78  71  79 SE13      30.04S
N.O. LAKEFRONT LGT RAIN  76  71  85 SE9       30.05S
N.O. DOWNTOWN* LGT RAIN  77  73  87 S8        30.06S
RESERVE*       MOCLDY    82  73  75 S15       30.04F
SLIDELL        FAIR      78  71  79 S7        30.04S
BATON ROUGE    FAIR      80  73  79 E15       30.00S
BOOTHVILLE     LGT RAIN  80  72  76 W6        30.05F
BELLE CHASSE   LGT RAIN  76  75  97 S6        30.05S
BOGALUSA*      FAIR      83  73  71 S9        30.04S
GALLIANO*      LGT RAIN  76  71  85 CALM      30.04F
NEW ROADS*     FAIR      88  73  62 S6        29.98F HX  96
GONZALES*      LGT RAIN  78  74  88 SE5       30.02S
HAMMOND*       CLOUDY    75  73  94 S7        30.04F
HOUMA*         MOSUNNY   75  73  94 SE9       30.04S
PORT FOURCHON* CLEAR     79  75  89 E7        30.03F

$$

LAZ041-044-053-054-202300-
SOUTHWEST LOUISIANA

CITY           SKY/WX    TMP DP  RH WIND       PRES   REMARKS
LAKE CHARLES   FAIR      90  74  59 S10       29.96S HX  99
LAFAYETTE      TSTM      77  76  96 E12G23    30.02R FOG
PATTERSON      FAIR      81  75  82 SE7       30.02S
SALT POINT       N/A     83  77  82 MISG      29.99S
NEW IBERIA     FAIR      82  75  79 E7        30.00S
CHENAULT AIRPK MOSUNNY   91  75  59 S10       29.96F HX 102

$$

LAZ027-028-202300-
CENTRAL LOUISIANA

CITY           SKY/WX    TMP DP  RH WIND       PRES   REMARKS
FORT POLK      FAIR      92  72  51 S6        29.93F HX 100
ALEXANDRIA INT FAIR      92  76  59 S9        29.94S HX 104
ALEXANDRIA     PTSUNNY   90  75  61 S7        29.96S HX 100

$$

LAZ001-002-202300-
NORTHWEST LOUISIANA

CITY           SKY/WX    TMP DP  RH WIND       PRES   REMARKS
SHREVEPORT     MOSUNNY   93  72  50 SW8       29.93F HX 101
BARKSDALE AFB  FAIR      94  72  48 S5        29.93F HX 101
DTN SHREVEPORT PTSUNNY   94  71  47 VRB6      29.94F HX 101

$$

LAZ014-016-202300-
NORTHEAST LOUISIANA

CITY           SKY/WX    TMP DP  RH WIND       PRES   REMARKS
MONROE         PTSUNNY   94  74  52 VRB3      29.96F HX 104
TALLULAH       TSTM      74  71  91 NE9G17    29.99S VSB 1

$$





USA.gov is the U.S. government's official web portal to all federal, state and local government web resources and services.